Home   Weather   San Jose   Past weeks
Flag for USA

Past Weather in San Jose, California, USA — Yesterday and Last 2 Weeks

Now
55 °F

Scattered clouds.


Feels Like: 52 °F
Forecast: 60 / 46 °F
Wind: 10 mph from Northwest

Location: San Jose International Airport

Current Time: Apr 1, 2020 at 10:50:28 am

Latest Report: Apr 1, 2020 at 9:53 am


Visibility: 10 mi

Pressure: 30.03 "Hg

Humidity: 62%

Dew Point: 42 °F

Location of San JoseLocation

Past Weather in San Jose — Graph

°F

San Jose Temperature Yesterday

Maximum temperature yesterday: 67 °F (at 3:53 pm)
Minimum temperature yesterday: 51 °F (at 1:53 am)
Average temperature yesterday: 57 °F

High & Low Weather Summary for the Past Weeks

 TemperatureHumidityPressure
High67 °F (Mar 22, 12:53 pm)93% (Mar 19, 2:53 am)30.32 "Hg (Mar 19, 2:53 am)
Low37 °F (Mar 26, 5:53 am)39% (Mar 26, 3:53 pm)29.85 "Hg (Mar 18, 3:53 pm)
Average52 °F72%30.10 "Hg
* Reported Mar 17 8:53 am — Apr 1 8:53 am, San Jose. Weather by CustomWeather, © 2020

Note: Actual official high and low records may vary slightly from our data, if they occured in-between our weather recording intervals... More about our weather records

San Jose Weather History for the Previous 24 Hours

Scroll right to see more
 ConditionsComfort  
Time TempWeatherWind HumidityBarometerVisibility
8:53 am
Wed, Apr 1
52 °FScattered clouds.9 mph66%30.02 "Hg10 mi
8:06 am50 °FScattered clouds.8 mph71%30.03 "Hg10 mi
7:53 am50 °FPartly sunny.7 mph71%30.02 "Hg10 mi
6:53 am49 °FPartly sunny.7 mph74%30.01 "Hg10 mi
5:53 am49 °FPassing clouds.10 mph71%30.01 "Hg10 mi
4:53 am49 °FClear.9 mph69%30.01 "Hg10 mi
3:53 am48 °FClear.6 mph71%30.02 "Hg10 mi
2:53 am52 °FPassing clouds.14 mph72%30.03 "Hg10 mi
2:13 am53 °FPassing clouds.7 mph80%30.04 "Hg10 mi
1:53 am51 °FPassing clouds.5 mph83%30.04 "Hg10 mi
12:53 am53 °FPassing clouds.No wind80%30.05 "Hg10 mi
11:53 pm
Tue, Mar 31
54 °FPassing clouds.7 mph80%30.06 "Hg10 mi
10:53 pm55 °FPassing clouds.7 mph80%30.07 "Hg10 mi
9:53 pm55 °FPassing clouds.12 mph80%30.09 "Hg10 mi
8:53 pm55 °FPassing clouds.13 mph80%30.09 "Hg10 mi
7:53 pm57 °FPassing clouds.13 mph74%30.08 "Hg10 mi
6:53 pm61 °FPassing clouds.18 mph67%30.07 "Hg10 mi
5:53 pm64 °FPassing clouds.16 mph56%30.09 "Hg10 mi
4:53 pm66 °FPassing clouds.15 mph59%30.10 "Hg10 mi
3:53 pm67 °FPassing clouds.12 mph57%30.11 "Hg10 mi
2:53 pm65 °FPassing clouds.16 mph61%30.13 "Hg10 mi
1:53 pm66 °FPassing clouds.12 mph49%30.16 "Hg10 mi
12:53 pm64 °FPassing clouds.9 mph61%30.18 "Hg10 mi
11:53 am62 °FPassing clouds.6 mph62%30.21 "Hg10 mi
10:53 am58 °FPassing clouds.No wind72%30.24 "Hg10 mi
10:36 am57 °FScattered clouds.3 mph74%30.25 "Hg10 mi
Weather by CustomWeather, © 2020

See weather overview

Advertising